Aérodrome :
LOGIN :

S'inscrire | Disclaimer

   EN    FR    IT 

 










Légende :    VFR   VFR Marginal   IFR   IFR Intensif   IFR Très Intensif
Visi : 
Plafond : 
>= 8 km
>= 3000ft
5 à 8 km
1000 à 3000 ft
1500m à 5 km
500 à 1000 ft
800 à 1500m
200 à 500 ft
< 800m
< 200 ft
Symboles :   Orages  Brouillard  Fortes neiges  Fortes précipitations  Vent > 20 kt
SIGMETs :   Divers  Orages  Givrage  Turbulence  Onde Orograph.  Cendres Volcan.







- Altitude de l'aérodrome : 357 ft
- Code IATA : TUF
- Voir les cartes d'approche


LFOT - Tours

DERNIER METAR :
  • 170930Z AUTO 18007KT 150V210 CAVOK 11/M02 Q1020 NOSIG

METARs EXPIRÉS :
  • 170900Z AUTO 17006KT CAVOK 09/M02 Q1020 NOSIG
  • 170830Z AUTO 15004KT CAVOK 08/M03 Q1021 NOSIG
  • 170800Z AUTO 15004KT CAVOK 07/M03 Q1020 NOSIG
  • 170730Z AUTO 14009KT CAVOK 05/M03 Q1020 NOSIG
  • 170700Z AUTO 15006KT CAVOK 04/M03 Q1020 NOSIG

TAF TAF LFOT
Valide du 17 à 06h jusqu'au 18 à 06h UTC


170500Z 1706/1806 16005KT CAVOK
Pas de NOTAMs connus pour ce terrain.



MET'MAP, la Météo Aéronautique d'un coup d'oeil ! - Copyright ORBIFLY Décembre 2007 - Disclaimer

ORBIFLY MET'MAP TEAM :

Programmation & Développement : Alexandra Zaïnal
Conception & Développement : Baudouin d'Aumeries
Co-Programmation & Développement : Marc-Olivier Méhu
Soutien technique & logistique : Manuel Goepfert

Contact : metmap@orbifly.com




SOURCES & CREDITS :

   NOAA